| time (UTC) | temp F | wind direction | speed knots | gust knots | rain 1hr in | rain 24hr in | rain mn in | humidity % | barometer mb |
| 20260506224507 | 53 | 165 | 0.0 | 6.1 | 0.00 | 0.00 | 0.00 | 61 | 1015.6 |
| 20260506223005 | 54 | 49 | 0.0 | 5.2 | 0.00 | 0.00 | 0.00 | 59 | 1015.6 |
| 20260506221503 | 54 | 26 | 0.9 | 7.0 | 0.00 | 0.00 | 0.00 | 60 | 1015.1 |
| 20260506220002 | 54 | 347 | 1.7 | 7.0 | 0.00 | 0.00 | 0.00 | 60 | 1014.8 |
| 20260506214600 | 55 | 231 | 1.7 | 6.1 | 0.00 | 0.00 | 0.00 | 60 | 1014.7 |
| 20260506213122 | 55 | 9 | 3.5 | 7.0 | 0.00 | 0.00 | 0.00 | 60 | 1014.5 |
| 20260506211558 | 55 | 337 | 1.7 | 7.0 | 0.00 | 0.00 | 0.00 | 61 | 1014.3 |
| 20260506210057 | 55 | 9 | 1.7 | 7.8 | 0.00 | 0.00 | 0.00 | 60 | 1014.2 |
| 20260506204556 | 56 | 272 | 0.9 | 10.4 | 0.00 | 0.00 | 0.00 | 59 | 1014.2 |
| 20260506203055 | 57 | 228 | 1.7 | 7.0 | 0.00 | 0.00 | 0.00 | 61 | 1014.0 |
| 20260506201555 | 57 | 313 | 3.5 | 8.7 | 0.00 | 0.00 | 0.00 | 58 | 1014.0 |
| 20260506200055 | 57 | 19 | 3.5 | 10.4 | 0.00 | 0.00 | 0.00 | 59 | 1013.9 |
| 20260506194554 | 58 | 20 | 1.7 | 8.7 | 0.00 | 0.00 | 0.00 | 57 | 1013.8 |
| 20260506193053 | 58 | 285 | 2.6 | 8.7 | 0.00 | 0.00 | 0.00 | 57 | 1013.6 |
| 20260506191553 | 58 | 284 | 2.6 | 9.6 | 0.00 | 0.00 | 0.00 | 56 | 1013.8 |
| 20260506190053 | 58 | 333 | 0.9 | 7.8 | 0.00 | 0.00 | 0.00 | 59 | 1013.7 |
| 20260506184552 | 57 | 13 | 3.5 | 9.6 | 0.00 | 0.00 | 0.00 | 59 | 1013.9 |
| 20260506183056 | 57 | 350 | 5.2 | 10.4 | 0.00 | 0.00 | 0.00 | 58 | 1014.0 |
| 20260506181615 | 56 | 348 | 0.9 | 6.1 | 0.00 | 0.00 | 0.00 | 62 | 1013.9 |
| 20260506180049 | 56 | 330 | 3.5 | 10.4 | 0.00 | 0.00 | 0.00 | 62 | 1014.0 |
| 20260506174547 | 56 | 9 | 1.7 | 7.8 | 0.00 | 0.00 | 0.00 | 58 | 1014.0 |
| 20260506173057 | 56 | 5 | 0.9 | 8.7 | 0.00 | 0.00 | 0.00 | 63 | 1014.0 |
| 20260506171546 | 55 | 5 | 2.6 | 9.6 | 0.00 | 0.00 | 0.00 | 64 | 1013.9 |
| 20260506170048 | 55 | 49 | 2.6 | 6.1 | 0.00 | 0.00 | 0.00 | 66 | 1013.7 |
| 20260506164546 | 55 | 360 | 3.5 | 9.6 | 0.00 | 0.00 | 0.00 | 70 | 1014.2 |
| 20260506163043 | 54 | 24 | 1.7 | 8.7 | 0.00 | 0.00 | 0.00 | 67 | 1013.8 |
| 20260506161540 | 54 | 311 | 1.7 | 7.8 | 0.00 | 0.00 | 0.00 | 70 | 1013.8 |
| 20260506160044 | 53 | 331 | 1.7 | 7.0 | 0.00 | 0.00 | 0.00 | 78 | 1013.7 |
| 20260506154536 | 52 | 341 | 1.7 | 7.0 | 0.00 | 0.00 | 0.00 | 78 | 1013.5 |
| 20260506153041 | 51 | 21 | 2.6 | 7.0 | 0.00 | 0.00 | 0.00 | 80 | 1013.4 |
| 20260506151534 | 50 | 27 | 1.7 | 5.2 | 0.00 | 0.00 | 0.00 | 83 | 1013.2 |
| 20260506150033 | 50 | 17 | 1.7 | 6.1 | 0.00 | 0.00 | 0.00 | 86 | 1013.3 |
| 20260506144528 | 49 | 16 | 1.7 | 7.0 | 0.00 | 0.00 | 0.00 | 87 | 1013.0 |
| 20260506143031 | 48 | 15 | 3.5 | 7.0 | 0.00 | 0.00 | 0.00 | 88 | 1012.6 |
| 20260506141525 | 47 | 19 | 2.6 | 7.0 | 0.00 | 0.00 | 0.00 | 89 | 1012.6 |
| 20260506140025 | 47 | 355 | 2.6 | 8.7 | 0.00 | 0.00 | 0.00 | 90 | 1012.4 |
| 20260506134521 | 47 | 17 | 1.7 | 5.2 | 0.00 | 0.00 | 0.00 | 90 | 1012.2 |
| 20260506133020 | 46 | 350 | 1.7 | 5.2 | 0.00 | 0.00 | 0.00 | 90 | 1012.0 |
| 20260506131529 | 46 | 343 | 0.9 | 4.3 | 0.00 | 0.00 | 0.00 | 89 | 1012.0 |
| 20260506130021 | 46 | 15 | 3.5 | 7.8 | 0.00 | 0.00 | 0.00 | 89 | 1012.0 |
| 20260506124515 | 46 | 22 | 0.9 | 6.1 | 0.00 | 0.00 | 0.00 | 88 | 1011.0 |
| 20260506123015 | 45 | 21 | 2.6 | 6.1 | 0.00 | 0.00 | 0.00 | 88 | 1011.2 |
| 20260506121514 | 45 | 13 | 1.7 | 7.8 | 0.00 | 0.00 | 0.00 | 88 | 1010.9 |
| 20260506120019 | 45 | 350 | 1.7 | 5.2 | 0.00 | 0.00 | 0.00 | 89 | 1010.9 |
| 20260506114519 | 45 | 19 | 1.7 | 5.2 | 0.00 | 0.00 | 0.00 | 89 | 1010.7 |
| 20260506113023 | 45 | 355 | 1.7 | 7.8 | 0.00 | 0.00 | 0.00 | 89 | 1010.4 |
| 20260506111507 | 45 | 15 | 1.7 | 6.1 | 0.00 | 0.00 | 0.00 | 89 | 1009.7 |
| 20260506110011 | 45 | 9 | 2.6 | 9.6 | 0.00 | 0.00 | 0.00 | 89 | 1010.0 |
| 20260506104504 | 45 | 342 | 1.7 | 7.8 | 0.00 | 0.00 | 0.00 | 89 | 1010.1 |
| 20260506103001 | 45 | 17 | 3.5 | 8.7 | 0.00 | 0.00 | 0.00 | 89 | 1009.3 |
| 20260506101558 | 45 | 23 | 0.9 | 6.1 | 0.00 | 0.00 | 0.00 | 89 | 1008.8 |
| 20260506100057 | 45 | 23 | 1.7 | 7.8 | 0.00 | 0.00 | 0.00 | 89 | 1008.4 |
| 20260506094555 | 45 | 22 | 1.7 | 7.8 | 0.00 | 0.00 | 0.00 | 89 | 1008.9 |
| 20260506093053 | 45 | 18 | 3.5 | 12.2 | 0.00 | 0.00 | 0.00 | 89 | 1009.0 |
| 20260506091555 | 46 | 10 | 5.2 | 10.4 | 0.00 | 0.00 | 0.00 | 89 | 1008.4 |
| 20260506090053 | 47 | 24 | 3.5 | 7.0 | 0.00 | 0.00 | 0.00 | 88 | 1008.8 |
| 20260506084547 | 47 | 355 | 3.5 | 9.6 | 0.00 | 0.00 | 0.00 | 89 | 1008.6 |
| 20260506083041 | 48 | 31 | 2.6 | 8.7 | 0.00 | 0.00 | 0.00 | 88 | 1008.4 |
| 20260506081539 | 48 | 16 | 3.5 | 9.6 | 0.00 | 0.00 | 0.00 | 88 | 1008.3 |
| 20260506073031 | 49 | 335 | 2.6 | 6.1 | 0.00 | 0.00 | 0.00 | 88 | 1007.6 |
| 20260506071529 | 50 | 342 | 2.6 | 7.8 | 0.00 | 0.00 | 0.00 | 88 | 1007.6 |
| 20260506061520 | 52 | 11 | 0.0 | 0.0 | 0.00 | 0.00 | 0.00 | 88 | 1007.5 |
| 20260506044506 | 57 | 200 | 0.0 | 2.6 | 0.00 | 0.00 | 0.00 | 87 | 1008.2 |
| 20260506043005 | 57 | 200 | 0.0 | 4.3 | 0.00 | 0.00 | 0.00 | 87 | 1008.3 |
| 20260506041504 | 57 | 183 | 0.0 | 4.3 | 0.00 | 0.00 | 0.00 | 87 | 1008.3 |
| 20260506040001 | 57 | 172 | 1.7 | 5.2 | 0.00 | 0.00 | 0.00 | 87 | 1008.5 |
| 20260506034615 | 57 | 193 | 1.7 | 5.2 | 0.00 | 0.00 | 0.00 | 87 | 1008.8 |
| 20260506033059 | 57 | 217 | 2.6 | 6.1 | 0.00 | 0.00 | 0.00 | 87 | 1009.0 |
| 20260506031608 | 57 | 223 | 0.0 | 5.2 | 0.00 | 0.00 | 0.00 | 87 | 1009.2 |
| 20260506030057 | 57 | 215 | 0.9 | 6.1 | 0.00 | 0.00 | 0.00 | 88 | 1009.0 |
| 20260506024616 | 58 | 180 | 0.9 | 4.3 | 0.00 | 0.00 | 0.00 | 87 | 1009.2 |
| 20260506023055 | 58 | 198 | 2.6 | 5.2 | 0.00 | 0.00 | 0.00 | 87 | 1009.3 |
| 20260506021557 | 58 | 221 | 0.9 | 5.2 | 0.00 | 0.00 | 0.00 | 87 | 1009.4 |
| 20260506020054 | 58 | 207 | 0.9 | 5.2 | 0.00 | 0.00 | 0.00 | 88 | 1009.3 |
| 20260506014554 | 58 | 194 | 1.7 | 4.3 | 0.00 | 0.00 | 0.00 | 88 | 1009.1 |
| 20260506013104 | 58 | 199 | 0.0 | 4.3 | 0.00 | 0.00 | 0.00 | 88 | 1008.8 |
| 20260506011605 | 58 | 171 | 0.0 | 5.2 | 0.00 | 0.00 | 0.00 | 88 | 1008.8 |
| 20260506010056 | 58 | 215 | 1.7 | 6.1 | 0.00 | 0.00 | 0.00 | 88 | 1009.0 |
| 20260506004551 | 58 | 242 | 2.6 | 7.0 | 0.00 | 0.00 | 0.00 | 88 | 1009.1 |
| 20260506003050 | 58 | 206 | 1.7 | 4.3 | 0.00 | 0.00 | 0.00 | 88 | 1009.0 |
| 20260506001549 | 58 | 214 | 0.9 | 4.3 | 0.00 | 0.00 | 0.00 | 88 | 1009.0 |
| 20260506000051 | 58 | 222 | 0.9 | 5.2 | 0.00 | 0.00 | 0.00 | 88 | 1008.9 |
| 20260505234548 | 58 | 183 | 0.0 | 4.3 | 0.00 | 0.00 | 0.00 | 88 | 1009.0 |
| 20260505233047 | 59 | 231 | 0.9 | 7.0 | 0.00 | 0.00 | 0.00 | 88 | 1009.0 |
| 20260505231547 | 59 | 213 | 1.7 | 6.1 | 0.00 | 0.00 | 0.00 | 88 | 1009.3 |
| 20260505230056 | 59 | 198 | 1.7 | 7.8 | 0.00 | 0.00 | 0.00 | 89 | 1009.4 |